User: anonymous   Login
Location: Unspecified
(0.0000°N, 0.0000°E)
Time: 00:04:54
(UTC+02:00)
Language:

ARIANE 5 R/B - Orbit

View from above orbital plane
View from above orbital plane
View from above satellite
View from above satellite

Ground track
Ground track

The orbit data is extracted from the following two-line orbital elements,

1 28886U 05041C   16177.59175765 -.00000110  00000-0 -75911-3 0  9999
2 28886   7.7764 135.8866 7179533 194.8408   9.5456  2.24330107 87726
Epoch (UTC): 25 June 2016 14:12:07
Eccentricity: 0.7179533
inclination: 7.7764°
perigee height: 574 km
apogee height: 35968 km
right ascension of ascending node: 135.8866°
argument of perigee: 194.8408°
revolutions per day: 2.24330107
mean anomaly at epoch: 9.5456°
orbit number at epoch: 8772

The dashed part of the orbit path shows where the satellite is in the earth's shadow,  

DLR